Location: Rio Tanui
(39.9167°N, 8.5167°E)
Time: 14:41:30
(UTC+00:00)

Meteor 2-2 Rocket - Pass Details

Date: 25 June 2024
Orbit: 851 x 928 km, 81.3° (Epoch: 18 July)

Event Time Altitude Azimuth Distance (km) Brightness Sun altitude
Rises 01:25:39 0° 358° (N) 3,427 8.3 -21.1°
Reaches altitude 10° 01:28:14 10° 5° (N) 2,487 7.6 -20.8°
Maximum altitude 01:33:31 40° 75° (ENE) 1,234 5.4 -20.3°
Drops below altitude 10° 01:38:48 10° 145° (SE) 2,490 6.4 -19.8°
Enters shadow 01:39:45 - 148° (SSE) 2,828 6.7 -19.7°
